• In Czech Republic
  • List of Countries
  • For 7 days
  • Water Temperature
  • Satellite Maps
  • Weather Map
  • Weather Widgets
  • user-avatar
    Login

    Hourly Weather Jalalabad

    Today, 11 December, Monday

    Time Temperature Precipitation Wind Pressure Humidity
    00:00 +13°C° 0 mm 2 mps 710 mmHg 24%
    01:00 +13°C° 0 mm 2 mps 710 mmHg 23%
    02:00 +13°C° 0 mm 2 mps 710 mmHg 22%
    03:00 +12°C° 0 mm 2 mps 710 mmHg 22%
    04:00 +12°C° 0 mm 2 mps 710 mmHg 22%
    05:00 +12°C° 0 mm 2 mps 710 mmHg 22%
    06:00 +12°C° 0 mm 2 mps 710 mmHg 22%
    07:00 +12°C° 0 mm 2 mps 710 mmHg 22%
    08:00 +12°C° 0 mm 1 mps 710 mmHg 23%
    09:00 +13°C° 0 mm 1 mps 710 mmHg 21%
    10:00 +14°C° 0 mm 1 mps 710 mmHg 20%
    11:00 +16°C° 0 mm 1 mps 710 mmHg 18%
    12:00 +16°C° 0 mm 1 mps 709 mmHg 20%
    13:00 +16°C° 0 mm 1 mps 709 mmHg 22%
    14:00 +16°C° 0 mm 2 mps 708 mmHg 24%
    15:00 +15°C° 0 mm 1 mps 708 mmHg 26%
    16:00 +14°C° 0 mm 1 mps 708 mmHg 29%
    17:00 +14°C° 0 mm 1 mps 708 mmHg 31%
    18:00 +13°C° 0 mm 1 mps 708 mmHg 33%
    19:00 +12°C° 0 mm 1 mps 708 mmHg 35%
    20:00 +11°C° 0 mm 1 mps 709 mmHg 36%
    21:00 +11°C° 0 mm 1 mps 709 mmHg 36%
    22:00 +10°C° 0 mm 1 mps 709 mmHg 35%
    23:00 +10°C° 0 mm 1 mps 708 mmHg 35%

    Tomorrow, 12 December, Tuesday

    Time Temperature Precipitation Wind Pressure Humidity
    00:00 +10°C° 0 mm 1 mps 708 mmHg 35%
    01:00 +9°C° 0 mm 1 mps 708 mmHg 34%
    02:00 +9°C° 0 mm 1 mps 708 mmHg 34%
    03:00 +9°C° 0 mm 1 mps 708 mmHg 33%
    04:00 +8°C° 0 mm 1 mps 708 mmHg 33%
    05:00 +8°C° 0 mm 1 mps 708 mmHg 32%
    06:00 +8°C° 0 mm 1 mps 708 mmHg 31%
    07:00 +9°C° 0 mm 1 mps 708 mmHg 29%
    08:00 +9°C° 0 mm 1 mps 709 mmHg 28%
    09:00 +10°C° 0 mm 1 mps 709 mmHg 25%
    10:00 +12°C° 0 mm 1 mps 709 mmHg 23%
    11:00 +14°C° 0 mm 1 mps 709 mmHg 20%
    12:00 +14°C° 0 mm 1 mps 709 mmHg 20%
    13:00 +14°C° 0 mm 1 mps 708 mmHg 20%
    14:00 +15°C° 0 mm 1 mps 708 mmHg 20%
    15:00 +14°C° 0 mm 1 mps 709 mmHg 22%
    16:00 +13°C° 0 mm 1 mps 709 mmHg 25%
    17:00 +12°C° 0 mm 1 mps 709 mmHg 27%
    18:00 +11°C° 0 mm 1 mps 710 mmHg 28%
    19:00 +10°C° 0 mm 1 mps 710 mmHg 30%
    20:00 +9°C° 0 mm 0 mps 711 mmHg 31%
    21:00 +9°C° 0 mm 1 mps 711 mmHg 31%
    22:00 +9°C° 0 mm 1 mps 712 mmHg 31%
    23:00 +9°C° 0 mm 1 mps 712 mmHg 31%

    Day after tomorrow, 13 December, Wednesday

    Time Temperature Precipitation Wind Pressure Humidity
    00:00 +8°C° 0 mm 1 mps 712 mmHg 32%
    01:00 +8°C° 0 mm 1 mps 712 mmHg 33%
    02:00 +8°C° 0 mm 1 mps 712 mmHg 33%
    03:00 +7°C° 0 mm 2 mps 712 mmHg 35%
    04:00 +7°C° 0 mm 2 mps 712 mmHg 36%
    05:00 +7°C° 0 mm 2 mps 711 mmHg 37%
    06:00 +7°C° 0 mm 2 mps 712 mmHg 37%
    07:00 +7°C° 0 mm 2 mps 712 mmHg 36%
    08:00 +7°C° 0 mm 2 mps 712 mmHg 36%
    09:00 +8°C° 0 mm 2 mps 712 mmHg 34%
    10:00 +9°C° 0 mm 2 mps 712 mmHg 32%
    11:00 +12°C° 0 mm 2 mps 712 mmHg 30%
    12:00 +12°C° 0.1 mm 2 mps 711 mmHg 32%
    13:00 +12°C° 0.1 mm 2 mps 710 mmHg 34%
    14:00 +12°C° 0.1 mm 2 mps 710 mmHg 37%
    15:00 +10°C° 0.2 mm 2 mps 710 mmHg 40%
    16:00 +10°C° 0.2 mm 2 mps 710 mmHg 44%
    17:00 +10°C° 0.2 mm 1 mps 710 mmHg 48%
    18:00 +10°C° 0.3 mm 1 mps 710 mmHg 51%
    19:00 +10°C° 0.3 mm 1 mps 711 mmHg 53%
    20:00 +8°C° 0.3 mm 2 mps 711 mmHg 56%
    21:00 +8°C° 0.3 mm 2 mps 711 mmHg 58%
    22:00 +8°C° 0.3 mm 2 mps 711 mmHg 59%
    23:00 +7°C° 0.3 mm 2 mps 711 mmHg 60%

    14 December, Thursday

    Time Temperature Precipitation Wind Pressure Humidity
    00:00 +7°C° 0.1 mm 2 mps 711 mmHg 60%
    01:00 +7°C° 0.1 mm 2 mps 711 mmHg 61%
    02:00 +7°C° 0.1 mm 2 mps 711 mmHg 61%
    03:00 +6°C° 0.1 mm 2 mps 711 mmHg 61%
    04:00 +6°C° 0.1 mm 2 mps 711 mmHg 62%
    05:00 +6°C° 0.1 mm 2 mps 711 mmHg 63%
    06:00 +6°C° 0.1 mm 2 mps 712 mmHg 63%
    07:00 +7°C° 0.1 mm 1 mps 712 mmHg 63%
    08:00 +7°C° 0.1 mm 1 mps 713 mmHg 63%
    09:00 +8°C° 0.1 mm 1 mps 713 mmHg 61%
    10:00 +8°C° 0.1 mm 1 mps 713 mmHg 59%
    11:00 +9°C° 0.1 mm 1 mps 714 mmHg 56%
    12:00 +9°C° 0.2 mm 1 mps 713 mmHg 57%
    13:00 +8°C° 0.2 mm 2 mps 713 mmHg 57%
    14:00 +8°C° 0.2 mm 2 mps 713 mmHg 58%
    15:00 +9°C° 0.2 mm 1 mps 713 mmHg 60%
    16:00 +9°C° 0.2 mm 1 mps 713 mmHg 62%
    17:00 +8°C° 0.2 mm 1 mps 713 mmHg 64%
    18:00 +8°C° 0.1 mm 1 mps 714 mmHg 65%
    19:00 +8°C° 0.1 mm 1 mps 714 mmHg 67%
    20:00 +7°C° 0.1 mm 1 mps 715 mmHg 68%
    21:00 +7°C° 0.1 mm 1 mps 715 mmHg 67%
    22:00 +6°C° 0.1 mm 1 mps 715 mmHg 67%
    23:00 +6°C° 0.1 mm 1 mps 715 mmHg 67%

    15 December, Friday

    Time Temperature Precipitation Wind Pressure Humidity
    00:00 +6°C° 0 mm 1 mps 715 mmHg 66%
    01:00 +5°C° 0 mm 1 mps 715 mmHg 66%
    02:00 +5°C° 0 mm 1 mps 715 mmHg 65%
    03:00 +5°C° 0 mm 1 mps 715 mmHg 64%
    04:00 +4°C° 0 mm 1 mps 715 mmHg 62%
    05:00 +3°C° 0 mm 2 mps 716 mmHg 61%
    06:00 +3°C° 0 mm 2 mps 716 mmHg 59%
    07:00 +4°C° 0 mm 2 mps 717 mmHg 57%
    08:00 +4°C° 0 mm 2 mps 717 mmHg 55%
    09:00 +5°C° 0 mm 2 mps 717 mmHg 50%
    10:00 +7°C° 0 mm 2 mps 717 mmHg 46%
    11:00 +8°C° 0 mm 2 mps 717 mmHg 41%
    12:00 +9°C° 0 mm 2 mps 717 mmHg 40%
    13:00 +9°C° 0 mm 2 mps 716 mmHg 39%
    14:00 +10°C° 0 mm 2 mps 715 mmHg 38%
    15:00 +9°C° 0 mm 2 mps 715 mmHg 40%
    16:00 +9°C° 0 mm 2 mps 715 mmHg 41%
    17:00 +8°C° 0 mm 2 mps 716 mmHg 43%
    18:00 +7°C° 0 mm 2 mps 716 mmHg 42%
    19:00 +7°C° 0 mm 2 mps 717 mmHg 42%
    20:00 +7°C° 0 mm 3 mps 717 mmHg 42%
    21:00 +5°C° 0 mm 3 mps 717 mmHg 41%
    22:00 +5°C° 0 mm 3 mps 717 mmHg 40%
    23:00 +5°C° 0 mm 3 mps 717 mmHg 38%

    16 December, Saturday

    Time Temperature Precipitation Wind Pressure Humidity
    00:00 +5°C° 0 mm 3 mps 717 mmHg 38%
    01:00 +5°C° 0 mm 3 mps 717 mmHg 37%
    02:00 +5°C° 0 mm 3 mps 717 mmHg 37%
    03:00 +5°C° 0 mm 3 mps 716 mmHg 37%
    04:00 +5°C° 0 mm 3 mps 716 mmHg 37%
    05:00 +5°C° 0 mm 3 mps 716 mmHg 36%
    06:00 +5°C° 0 mm 3 mps 716 mmHg 36%
    07:00 +5°C° 0 mm 3 mps 716 mmHg 36%
    08:00 +5°C° 0 mm 3 mps 717 mmHg 36%
    09:00 +8°C° 0 mm 2 mps 717 mmHg 34%
    10:00 +10°C° 0 mm 2 mps 716 mmHg 31%
    11:00 +13°C° 0 mm 2 mps 716 mmHg 29%
    12:00 +13°C° 0 mm 2 mps 715 mmHg 29%
    13:00 +14°C° 0 mm 2 mps 715 mmHg 29%
    14:00 +14°C° 0 mm 2 mps 714 mmHg 28%
    15:00 +13°C° 0 mm 2 mps 714 mmHg 30%
    16:00 +12°C° 0 mm 2 mps 714 mmHg 32%
    17:00 +11°C° 0 mm 1 mps 714 mmHg 34%
    18:00 +10°C° 0 mm 2 mps 715 mmHg 34%
    19:00 +10°C° 0 mm 2 mps 716 mmHg 35%
    20:00 +9°C° 0 mm 2 mps 716 mmHg 35%
    21:00 +9°C° 0 mm 2 mps 716 mmHg 35%
    22:00 +9°C° 0 mm 2 mps 716 mmHg 36%
    23:00 +9°C° 0 mm 2 mps 716 mmHg 36%
    Show more